sat.trackr.live / text

‹ back to catalog

SYRACUSE 4A

NORAD 49333 · 2021-095B

PAYLOAD ACTIVE UNKNOWN

§ Identity

Operator
Country
FR
Launch date
2021-10-24
Launch site
FRGUI
Launch vehicle
Mass (kg)
RCS (m²)

Purposes: comms

External: N2YO · Heavens-Above · Gunter

§ Orbital elements

Epoch: 2026-09-15T22:31:17.308128Z

Period
1,436.03 min
Inclination
0.0164°
Eccentricity
0.0001781
Mean motion
1.00276541 rev/d
Perigee alt
35,777.8 km
Apogee alt
35,792.8 km
Semi-major
42,163.4 km
B*
0.0000e+0
RAAN
208.1301°
Arg perigee
314.6817°
Mean anomaly
215.4280°
Rev number
1,885

§ Raw data

SYRACUSE 4A1 49333U 21095B   26258.93839477  .00000129  00000+0  00000+0 0  99922 49333   0.0164 208.1301 0001781 314.6817 215.4280  1.00276541 18857

JSON: /api/v1/satellites/49333 · /tle

For live sub-satellite position, see the globe view (requires WebGL).

§ Visibility from observer

Set your observer location to see the next 7 days of passes ≥ 10°. The values pass through the URL so the page stays shareable.

No JS? Fill the form by hand. The geolocation button needs JavaScript.